Location: Berg
(47.2344°N, 9.5296°E)
Time: 04:45:15
(UTC+00:00)

Tiangong - Pass Details

Date: 27 September 2021
Orbit: 382 x 384 km, 41.5° (Epoch: 20 October)

Event Time Altitude Azimuth Distance (km) Brightness Sun altitude
Exits shadow 04:31:57 - 220° (SW) 1,814 4.0 -8.2°
Reaches altitude 10° 04:33:15 10° 207° (SSW) 1,392 3.6 -8.0°
Maximum altitude 04:35:28 18° 162° (SSE) 1,022 3.4 -7.6°
Drops below altitude 10° 04:37:42 10° 117° (ESE) 1,395 4.9 -7.2°
Sets 04:40:11 0° 97° (E) 2,249 7.0 -6.8°
